This is the latest recevied weather packets stored in our database for station/object EA3HRE-13. If no packets are shown the sender has not sent any weather packets the latest 10 day(s).
| Time | Temp. | Humidity | Pressure | Rain* | Wind** | Luminosity | Snow |
|---|---|---|---|---|---|---|---|
| 1777550152 | 23.33° C | 100% | 1016.6 hPa | 0 mm | - | - | - |
| 1777549551 | 23.33° C | 100% | 1016.6 hPa | 0 mm | - | - | - |
| 1777548951 | 23.33° C | 100% | 1016.5 hPa | 0 mm | - | - | - |
| 1777548351 | 22.78° C | 100% | 1016.6 hPa | 0 mm | - | - | - |
| 1777547751 | 22.78° C | 100% | 1016.9 hPa | 0 mm | - | - | - |
| 1777547151 | 23.33° C | 100% | 1016.8 hPa | 0 mm | - | - | - |
| 1777546551 | 22.78° C | 100% | 1016.9 hPa | 0 mm | - | - | - |
| 1777545951 | 22.78° C | 100% | 1017 hPa | 0 mm | - | - | - |
| 1777545351 | 22.22° C | 100% | 1016.9 hPa | 0 mm | - | - | - |
| 1777544721 | 22.22° C | 100% | 1017 hPa | 0 mm | - | - | - |
| 1777544091 | 22.22° C | 100% | 1017 hPa | 0 mm | - | - | - |
| 1777543491 | 22.78° C | 100% | 1017.1 hPa | 0 mm | - | - | - |
| 1777542891 | 22.78° C | 100% | 1017 hPa | 0 mm | - | - | - |
| 1777542291 | 22.22° C | 100% | 1016.9 hPa | 0 mm | - | - | - |
| 1777541690 | 22.22° C | 100% | 1016.8 hPa | 0 mm | - | - | - |
| 1777541090 | 22.22° C | 100% | 1016.9 hPa | 0 mm | - | - | - |
| 1777540490 | 21.67° C | 100% | 1016.9 hPa | 0 mm | - | - | - |
| 1777539890 | 21.67° C | 100% | 1016.8 hPa | 0 mm | - | - | - |
| 1777539290 | 21.67° C | 100% | 1016.7 hPa | 0 mm | - | - | - |
| 1777538690 | 21.11° C | 100% | 1019.4 hPa | 0 mm | - | - | - |
| 1777538060 | 21.11° C | 100% | 1019.2 hPa | 0 mm | - | - | - |
| 1777537430 | 20.56° C | 100% | 1019.1 hPa | 0 mm | - | - | - |
| 1777536830 | 20.56° C | 100% | 1018.9 hPa | 0 mm | - | - | - |
| 1777536230 | 20° C | 100% | 1019 hPa | 0 mm | - | - | - |
| 1777535630 | 20° C | 100% | 1018.9 hPa | 0 mm | - | - | - |
* Rain latest hour (hover to see other rain measurements)
** Current wind speed in m/s (hover to see current wind gust speed)